Weather History for Jackson, WY

Change the Weather History Date:

Monday, July 14, 2014

  Actual Average Record
Temperature  
Mean Temperature 60 °F -  
Max Temperature 73 °F 79 °F 93 °F (2002)
Min Temperature 48 °F 38 °F 29 °F (1977)
Degree Days  
Heating Degree Days 4    
Growing Degree Days 10 (Base 50)    
Moisture  
Dew Point 48 °F    
Average Humidity 70    
Maximum Humidity 93    
Minimum Humidity 38    
Precipitation  
Precipitation 0.00 in - - ()
Sea Level Pressure  
Sea Level Pressure 30.35 in    
Wind  
Wind Speed 7 mph (North)    
Max Wind Speed 21 mph    
Max Gust Speed 39 mph    
Visibility 10 miles    
Events      
Averages and records for this station are not official NWS values.
T = Trace of Precipitation, MM = Missing Value Source: NWS Daily Summary

Daily Weather History Graph

Daily Weather History Graph

Search for Another Location

Airport:

Trip Planner

Search our weather history database for the weather conditions in past years. The results will help you decide how hot, cold, wet, or windy it might be!

Date:

Astronomy

Jul. 14, 2014 Rise Set
Actual Time 5:54 AM MDT 9:02 PM MDT
Civil Twilight 5:19 AM MDT 9:37 PM MDT
Nautical Twilight 4:35 AM MDT 10:21 PM MDT
Astronomical Twilight 3:41 AM MDT 11:15 PM MDT
Moon 10:26 PM MDT (7/14) 8:48 AM MDT (7/14)
Length of Visible Light 16h 17m
Length of Day
15h 08m
Waning Gibbous, 92% of the Moon is Illuminated
Jul 14
Waning Gibbous
Jul 18
Last Quarter
Jul 26
New
Aug 3
First Quarter
Aug 10
Full

Hourly Weather History & Observations

Time (MDT) Temp. Dew Point Humidity Pressure Visibility Wind Dir Wind Speed Gust Speed Precip Events Conditions
12:15 AM 57.2 °F 48.2 °F 72% 30.36 in 10.0 mi NW 6.9 mph - N/A   Clear
12:35 AM 57.2 °F 48.2 °F 72% 30.36 in 10.0 mi North 4.6 mph - N/A   Clear
12:55 AM 57.2 °F 48.2 °F 72% 30.36 in 10.0 mi North 8.1 mph - N/A   Clear
1:15 AM 59.0 °F 48.2 °F 67% 30.36 in 10.0 mi North 12.7 mph - N/A   Clear
1:35 AM 59.0 °F 46.4 °F 63% 30.36 in 10.0 mi North 12.7 mph - N/A   Clear
1:55 AM 59.0 °F 46.4 °F 63% 30.37 in 10.0 mi Calm Calm - N/A   Clear
2:15 AM 59.0 °F 46.4 °F 63% 30.36 in 10.0 mi North 6.9 mph - N/A   Clear
2:35 AM 55.4 °F 46.4 °F 72% 30.36 in 10.0 mi North 9.2 mph - N/A   Clear
2:55 AM 55.4 °F 46.4 °F 72% 30.37 in 10.0 mi NNW 5.8 mph - N/A   Clear
3:15 AM 55.4 °F 46.4 °F 72% 30.37 in 10.0 mi NW 4.6 mph - N/A   Clear
3:35 AM 53.6 °F 46.4 °F 77% 30.37 in 10.0 mi NNW 8.1 mph - N/A   Clear
3:55 AM 53.6 °F 48.2 °F 82% 30.37 in 10.0 mi North 4.6 mph - N/A   Clear
4:15 AM 51.8 °F 46.4 °F 82% 30.38 in 10.0 mi North 3.5 mph - N/A   Clear
4:35 AM 51.8 °F 46.4 °F 82% 30.38 in 10.0 mi North 8.1 mph - N/A   Clear
4:55 AM 50.0 °F 44.6 °F 82% 30.38 in 10.0 mi North 5.8 mph - N/A   Clear
5:15 AM 51.8 °F 46.4 °F 82% 30.38 in 10.0 mi North 6.9 mph - N/A   Clear
5:35 AM 51.8 °F 46.4 °F 82% 30.39 in 10.0 mi North 4.6 mph - N/A   Clear
5:55 AM 50.0 °F 44.6 °F 82% 30.39 in 10.0 mi Calm Calm - N/A   Clear
6:15 AM 48.2 °F 44.6 °F 87% 30.39 in 10.0 mi WNW 4.6 mph - N/A   Clear
6:35 AM 48.2 °F 46.4 °F 93% 30.40 in 10.0 mi North 4.6 mph - N/A   Clear
7:58 AM 57.2 °F 46.4 °F 67% 30.42 in 10.0 mi Calm Calm - N/A   Clear
9:55 AM 64.4 °F 48.2 °F 56% 30.40 in 10.0 mi Calm Calm - N/A   Clear
2:54 PM 62.6 °F 55.4 °F 77% 30.34 in 10.0 mi NNW 20.7 mph 39.1 mph N/A   Mostly Cloudy
3:51 PM 73.4 °F 53.6 °F 50% 30.33 in 10.0 mi North 19.6 mph 26.5 mph N/A   Partly Cloudy
4:54 PM 73.4 °F 48.2 °F 41% 30.34 in 10.0 mi NE 10.4 mph - N/A   Partly Cloudy
5:58 PM 73.4 °F 46.4 °F 38% 30.31 in 10.0 mi NNE 15.0 mph - N/A   Clear
6:51 PM 71.6 °F 46.4 °F 41% 30.30 in 10.0 mi North 12.7 mph - N/A   Clear
9:15 PM 66.2 °F 51.8 °F 60% 30.31 in 10.0 mi SSW 13.8 mph 21.9 mph N/A   Partly Cloudy
9:35 PM 64.4 °F 51.8 °F 64% 30.31 in 10.0 mi WSW 15.0 mph - N/A   Scattered Clouds
9:55 PM 64.4 °F 51.8 °F 64% 30.28 in 10.0 mi South 17.3 mph - N/A   Overcast
10:15 PM 62.6 °F 51.8 °F 68% 30.30 in 10.0 mi SW 9.2 mph - N/A   Partly Cloudy
10:35 PM 62.6 °F 51.8 °F 68% 30.32 in 10.0 mi Calm Calm - N/A   Scattered Clouds
10:55 PM 62.6 °F 51.8 °F 68% 30.31 in 10.0 mi SSE 8.1 mph - N/A   Partly Cloudy
11:15 PM 60.8 °F 51.8 °F 72% 30.31 in 10.0 mi South 9.2 mph - N/A   Clear
11:35 PM 59.0 °F 51.8 °F 77% 30.31 in 10.0 mi South 9.2 mph - N/A   Clear
11:55 PM 59.0 °F 51.8 °F 77% 30.31 in 10.0 mi Calm Calm - N/A   Clear